Location: Boiro
(42.6475°N, 8.8834°W)
Time: 08:21:24
(UTC+01:00)

BlueWalker 3 - Visible Passes

Search period start: 01 December 2023 00:00
Search period end: 11 December 2023 00:00
Orbit: 489 x 504 km, 53.2° (Epoch: 29 November)

Date Brightness Start Highest point End Pass type
(mag) Time Alt. Az. Time Alt. Az. Time Alt. Az.
01 Dec 3.0 06:58:41 29° NNW 06:59:51 37° NNE 07:03:26 10° E visible
02 Dec 3.0 06:37:08 36° NNE 06:37:14 37° NNE 06:40:48 10° E visible
02 Dec 2.7 08:12:03 10° WNW 08:15:37 38° SW 08:19:10 10° SSE visible
03 Dec 3.6 06:15:37 30° ENE 06:15:37 30° ENE 06:18:10 10° E visible
03 Dec 2.6 07:50:11 15° WNW 07:53:00 38° SW 07:56:33 10° SSE visible
04 Dec 4.5 05:54:09 19° E 05:54:09 19° E 05:55:31 10° E visible
04 Dec 2.6 07:28:43 25° W 07:30:21 39° SW 07:33:54 10° SSE visible
05 Dec 5.3 05:32:44 11° E 05:32:44 11° E 05:32:50 10° E visible
05 Dec 2.5 07:07:18 38° WSW 07:07:41 39° SW 07:11:15 10° SSE visible
06 Dec 3.0 06:45:57 33° S 06:45:57 33° S 06:48:35 10° SSE visible
07 Dec 4.1 06:24:38 19° SSE 06:24:38 19° SSE 06:25:53 10° SSE visible
